• Join FlightAware (Why Join?)
  • Login
  • US Flag 
02:43AM EDT


 

Airport Tracker/Info


-or-


 

Live Flight TrackerFlight Track Log ✈ DAL5889 ✈ 20-Oct-2013 ✈ KBOS - KLGA

Flight Track Log - Related Links

Times and Time Zones

All times are in EDT time to prevent confusion due to time zone crossing. See the DAL5889 flight status page for this flight to view local times or setup timezone preferences in your user account.

Time Position Orientation Groundspeed Altitude Reporting Facility
EDT Latitude Longitude Course Direction KTS MPH feet Rate Location/Type
04:21PM 42.3667 -71.0167 260° West 127 146 500  Level KA90
04:22PM 42.4000 -71.0500 324° Northwest 185 213 2,500 2,400 Climbing KA90
04:23PM 42.4000 -71.1333 270° West 255 293 5,300 3,000 Climbing KA90
04:24PM 42.3578 -71.2044 231° Southwest 250 288 8,800 3,240 Climbing Boston Center
04:25PM 42.1322 -71.3257 260° West  Level FlightAware Approximate
04:25PM 42.3108 -71.2933 234° Southwest 272 313 12,100  Level Boston Center
04:26PM 42.1162 -71.4495 260° West  Level FlightAware Approximate
04:26PM 42.2681 -71.3800 236° Southwest 278 320 15,100  Level Boston Center
04:27PM 42.2450 -71.4792 253° West 276 318 16,100 480 Climbing Boston Center
04:28PM 42.2194 -71.5864 252° West 279 321 16,100  Level Boston Center
04:29PM 42.1936 -71.6867 251° West 283 326 16,100  Level Boston Center
04:30PM 42.1697 -71.7856 252° West 281 323 16,100  Level Boston Center
04:31PM 42.1428 -71.8931 251° West 282 325 16,100  Level Boston Center
04:32PM 42.1178 -71.9914 251° West 286 329 16,100 -60 Level Boston Center
04:33PM 42.0908 -72.0989 251° West 282 325 16,000 -60 Descending Boston Center
04:34PM 42.0642 -72.2058 251° West 306 352 16,000  Level Boston Center
04:35PM 42.0350 -72.3203 251° West 321 369 16,000  Level Boston Center
04:36PM 42.0044 -72.4419 251° West 319 367 16,000  Level Boston Center
04:37PM 41.9756 -72.5561 251° West 322 371 16,000  Level Boston Center
04:38PM 41.9478 -72.6658 251° West 320 368 16,000  Level Boston Center
04:39PM 41.9044 -72.7775 242° Southwest 321 369 16,000  Level Boston Center
04:40PM 41.8600 -72.8836 241° Southwest 326 375 16,000  Level Boston Center
04:41PM 41.8128 -72.9981 241° Southwest 327 376 16,000  Level Boston Center
04:42PM 41.7681 -73.1039 240° Southwest 328 377 16,000  Level Boston Center
04:43PM 41.7236 -73.2086 240° Southwest 325 374 16,000  Level Boston Center
04:44PM 41.6639 -73.3031 230° Southwest 331 381 16,000  Level Boston Center
04:45PM 41.5972 -73.4072 229° Southwest 341 392 16,000 -900 Level Boston Center
04:46PM 41.5381 -73.4989 229° Southwest 330 380 14,200 -1,620 Descending Boston Center
04:47PM 41.4822 -73.5856 229° Southwest 312 359 12,700 -1,500 Descending Boston Center
04:48PM 41.4333 -73.6500 225° Southwest 268 308 11,500 -1,740 Descending New York TRACON
04:49PM 41.3833 -73.7167 225° Southwest 263 303 9,600 -1,740 Descending New York TRACON
04:50PM 41.3167 -73.7500 201° Southwest 291 335 8,000 -840 Descending New York TRACON
04:51PM 41.2500 -73.7167 159° South 276 318 8,000 -240 Level New York TRACON
04:52PM 41.2000 -73.6667 143° Southeast 257 296 7,600 -780 Descending New York TRACON
04:53PM 41.1333 -73.6000 143° Southeast 257 296 6,400 -1,140 Descending New York TRACON
04:54PM 41.0667 -73.5833 169° South 245 282 5,400 -1,200 Descending New York TRACON
04:55PM 41.0333 -73.6333 229° Southwest 211 243 4,000 -720 Descending New York TRACON
04:56PM 41.0000 -73.7000 236° Southwest 181 208 4,000 -60 Level New York TRACON
04:57PM 40.9500 -73.7333 207° Southwest 189 217 3,900 -540 Descending New York TRACON
04:58PM 40.9167 -73.7667 217° Southwest 186 214 3,000 -1,020 Descending New York TRACON
04:59PM 40.8667 -73.8000 207° Southwest 185 213 2,000 -960 Descending New York TRACON
05:00PM 40.8333 -73.8333 217° Southwest 143 165 1,100 -840 Descending New York TRACON
05:01PM 40.8000 -73.8500 201° Southwest 140 161 400 -720 Descending New York TRACON